TimeCST,TemperatureF,Dew PointF,Humidity,Sea Level PressureIn,VisibilityMPH,Wind Direction,Wind SpeedMPH,Gust SpeedMPH,PrecipitationIn,Events,Conditions,WindDirDegrees,DateUTC
12:15 AM,-8.5,-15.0,73,30.37,10.0,WSW,11.5,-,N/A,,Clear,250,2014-01-07 06:15:00
12:35 AM,-7.8,-14.8,71,30.37,10.0,WSW,11.5,-,N/A,,Clear,250,2014-01-07 06:35:00
12:55 AM,-8.0,-14.8,72,30.37,10.0,West,11.5,-,N/A,,Clear,260,2014-01-07 06:55:00
1:15 AM,-8.1,-14.8,73,30.37,10.0,WSW,9.2,-,N/A,,Clear,250,2014-01-07 07:15:00
1:35 AM,-8.5,-14.8,74,30.38,10.0,WSW,10.4,-,N/A,,Clear,250,2014-01-07 07:35:00
1:55 AM,-9.4,-15.5,74,30.37,10.0,WSW,6.9,-,N/A,,Clear,240,2014-01-07 07:55:00
2:15 AM,-10.3,-16.1,76,30.38,10.0,SW,9.2,-,N/A,,Clear,230,2014-01-07 08:15:00
2:35 AM,-9.0,-15.2,75,30.37,10.0,WSW,8.1,-,N/A,,Clear,250,2014-01-07 08:35:00
2:55 AM,-8.9,-14.8,75,30.37,10.0,WSW,10.4,-,N/A,,Clear,250,2014-01-07 08:55:00
3:15 AM,-8.1,-14.1,75,30.37,10.0,WSW,10.4,-,N/A,,Clear,250,2014-01-07 09:15:00
3:35 AM,-6.5,-12.6,75,30.38,10.0,WSW,10.4,-,N/A,,Clear,240,2014-01-07 09:35:00
3:55 AM,-6.5,-12.5,75,30.36,10.0,WSW,6.9,-,N/A,,Clear,240,2014-01-07 09:55:00
4:15 AM,-6.7,-12.5,76,30.36,10.0,SW,6.9,-,N/A,,Clear,220,2014-01-07 10:15:00
4:35 AM,-6.2,-12.1,75,30.35,10.0,WSW,8.1,-,N/A,,Clear,240,2014-01-07 10:35:00
4:55 AM,-6.0,-12.1,75,30.34,10.0,SW,8.1,-,N/A,,Clear,230,2014-01-07 10:55:00
5:15 AM,-6.5,-12.6,75,30.34,10.0,SW,8.1,-,N/A,,Clear,230,2014-01-07 11:15:00
5:35 AM,-7.8,-13.5,76,30.35,10.0,SW,8.1,-,N/A,,Clear,230,2014-01-07 11:35:00
5:55 AM,-8.1,-13.9,76,30.35,10.0,SSW,6.9,-,N/A,,Clear,210,2014-01-07 11:55:00
6:15 AM,-8.0,-13.5,77,30.35,10.0,SSW,5.8,-,N/A,,Clear,210,2014-01-07 12:15:00
6:35 AM,-8.5,-13.9,77,30.35,10.0,South,5.8,-,N/A,,Scattered Clouds,190,2014-01-07 12:35:00
6:55 AM,-8.1,-13.2,79,30.35,10.0,SSW,3.5,-,N/A,,Mostly Cloudy,210,2014-01-07 12:55:00
7:15 AM,-8.1,-13.4,78,30.34,10.0,SSW,4.6,-,N/A,,Mostly Cloudy,210,2014-01-07 13:15:00
7:35 AM,-8.7,-13.9,78,30.33,10.0,Calm,Calm,-,N/A,,Scattered Clouds,0,2014-01-07 13:35:00
7:55 AM,-7.1,-12.1,79,30.34,10.0,South,5.8,-,N/A,,Mostly Cloudy,180,2014-01-07 13:55:00
8:15 AM,-5.1,-10.3,78,30.34,10.0,SSW,8.1,-,N/A,,Overcast,210,2014-01-07 14:15:00
8:35 AM,-3.5,-9.6,75,30.35,10.0,SSW,9.2,-,N/A,,Mostly Cloudy,200,2014-01-07 14:35:00
8:55 AM,-2.7,-9.6,73,30.35,10.0,SSW,10.4,-,N/A,,Overcast,210,2014-01-07 14:55:00
9:15 AM,-2.2,-8.9,73,30.35,10.0,SSW,8.1,-,N/A,,Overcast,210,2014-01-07 15:15:00
9:35 AM,-0.9,-8.0,72,30.35,10.0,SSW,8.1,-,N/A,,Mostly Cloudy,200,2014-01-07 15:35:00
9:55 AM,0.5,-6.9,71,30.35,10.0,SSW,8.1,-,N/A,,Scattered Clouds,210,2014-01-07 15:55:00
10:15 AM,2.1,-5.6,70,30.33,10.0,SSW,9.2,-,N/A,,Clear,200,2014-01-07 16:15:00
10:35 AM,3.2,-5.1,68,30.33,10.0,SSW,6.9,-,N/A,,Scattered Clouds,200,2014-01-07 16:35:00
10:55 AM,4.1,-4.4,68,30.32,10.0,South,4.6,-,N/A,,Scattered Clouds,180,2014-01-07 16:55:00
11:15 AM,4.6,-3.6,69,30.30,10.0,SSE,9.2,-,N/A,,Overcast,160,2014-01-07 17:15:00
11:35 AM,5.0,-2.7,70,30.28,10.0,South,9.2,-,N/A,,Overcast,170,2014-01-07 17:35:00
11:55 AM,5.9,-2.2,69,30.27,10.0,SSE,9.2,-,N/A,,Mostly Cloudy,160,2014-01-07 17:55:00
12:15 PM,6.8,-1.3,69,30.25,10.0,SSE,8.1,-,N/A,,Overcast,150,2014-01-07 18:15:00
12:35 PM,7.3,-0.6,70,30.23,10.0,SE,9.2,-,N/A,,Overcast,140,2014-01-07 18:35:00
12:55 PM,8.2,-0.6,67,30.22,10.0,SE,9.2,-,N/A,,Mostly Cloudy,140,2014-01-07 18:55:00
1:15 PM,8.6,0.9,71,30.21,10.0,ESE,10.4,-,N/A,,Mostly Cloudy,120,2014-01-07 19:15:00
1:35 PM,9.1,0.7,69,30.19,10.0,SE,12.7,-,N/A,,Scattered Clouds,140,2014-01-07 19:35:00
1:55 PM,9.5,0.9,68,30.19,10.0,SE,11.5,-,N/A,,Scattered Clouds,140,2014-01-07 19:55:00
2:15 PM,10.2,1.2,67,30.20,10.0,SE,11.5,-,N/A,,Mostly Cloudy,140,2014-01-07 20:15:00
2:35 PM,10.8,1.4,66,30.19,10.0,SE,13.8,17.3,N/A,,Mostly Cloudy,140,2014-01-07 20:35:00
2:55 PM,11.3,1.4,64,30.20,10.0,SSE,12.7,-,N/A,,Mostly Cloudy,150,2014-01-07 20:55:00
3:15 PM,11.8,1.8,64,30.20,10.0,SE,12.7,-,N/A,,Scattered Clouds,140,2014-01-07 21:15:00
3:35 PM,12.2,2.1,64,30.20,10.0,SSE,13.8,-,N/A,,Mostly Cloudy,150,2014-01-07 21:35:00
3:55 PM,12.4,2.5,65,30.20,10.0,SSE,11.5,-,N/A,,Mostly Cloudy,150,2014-01-07 21:55:00
4:15 PM,12.7,3.0,65,30.21,10.0,SE,10.4,-,N/A,,Mostly Cloudy,140,2014-01-07 22:15:00
4:35 PM,12.6,3.2,66,30.21,10.0,SE,9.2,-,N/A,,Mostly Cloudy,140,2014-01-07 22:35:00
4:55 PM,12.0,3.2,68,30.22,10.0,SE,5.8,-,N/A,,Mostly Cloudy,140,2014-01-07 22:55:00
5:15 PM,10.9,3.0,70,30.22,10.0,SE,4.6,-,N/A,,Mostly Cloudy,140,2014-01-07 23:15:00
5:35 PM,9.1,2.3,74,30.23,10.0,SE,4.6,-,N/A,,Scattered Clouds,130,2014-01-07 23:35:00
5:55 PM,8.2,1.8,75,30.23,10.0,SE,6.9,-,N/A,,Clear,130,2014-01-07 23:55:00
6:15 PM,8.1,1.4,74,30.23,10.0,SE,8.1,-,N/A,,Clear,130,2014-01-08 00:15:00
6:35 PM,7.5,0.9,74,30.24,10.0,SE,8.1,-,N/A,,Clear,130,2014-01-08 00:35:00
6:55 PM,6.6,0.1,75,30.24,10.0,ESE,5.8,-,N/A,,Clear,110,2014-01-08 00:55:00
7:15 PM,5.0,-0.6,78,30.25,10.0,ESE,3.5,-,N/A,,Clear,120,2014-01-08 01:15:00
7:35 PM,4.1,-1.1,79,30.25,10.0,ESE,4.6,-,N/A,,Clear,120,2014-01-08 01:35:00
7:55 PM,4.8,-0.6,78,30.26,10.0,ESE,3.5,-,N/A,,Clear,110,2014-01-08 01:55:00
8:15 PM,3.2,-2.0,79,30.25,10.0,East,4.6,-,N/A,,Clear,90,2014-01-08 02:15:00
8:35 PM,3.9,-0.9,80,30.25,10.0,East,4.6,-,N/A,,Clear,100,2014-01-08 02:35:00
8:55 PM,2.5,-2.0,81,30.25,10.0,ENE,4.6,-,N/A,,Clear,70,2014-01-08 02:55:00
9:15 PM,2.3,-2.2,81,30.26,10.0,Calm,Calm,-,N/A,,Clear,0,2014-01-08 03:15:00
9:35 PM,3.2,-1.5,81,30.26,10.0,Calm,Calm,-,N/A,,Clear,0,2014-01-08 03:35:00
9:55 PM,2.3,-2.2,81,30.26,10.0,ENE,3.5,-,N/A,,Clear,60,2014-01-08 03:55:00
10:15 PM,2.5,-2.2,81,30.25,10.0,ENE,3.5,-,N/A,,Clear,60,2014-01-08 04:15:00
10:35 PM,1.9,-2.0,83,30.26,10.0,NE,4.6,-,N/A,,Mostly Cloudy,50,2014-01-08 04:35:00
10:55 PM,3.2,-0.6,84,30.26,10.0,NNE,4.6,-,N/A,,Mostly Cloudy,30,2014-01-08 04:55:00
11:15 PM,2.8,-1.1,84,30.26,10.0,Calm,Calm,-,N/A,,Scattered Clouds,0,2014-01-08 05:15:00
11:35 PM,4.3,0.3,84,30.27,10.0,Calm,Calm,-,N/A,,Mostly Cloudy,0,2014-01-08 05:35:00
11:55 PM,4.8,0.5,82,30.27,10.0,Calm,Calm,-,N/A,,Scattered Clouds,0,2014-01-08 05:55:00